Stations météo

Publicité
Le Havre/Octeville, France (7046): Température de l'air & dewpoint: 04.08.2020 00:00:00 - 10.08.2020 00:00:00 (CEST)Le Havre/Octeville, France (7046): Vitesse du vent & gusts: 04.08.2020 00:00:00 - 10.08.2020 00:00:00 (CEST)Le Havre/Octeville, France (7046): Direction du vent: 04.08.2020 00:00:00 - 10.08.2020 00:00:00 (CEST)Le Havre/Octeville, France (7046): reduced air pressure: 04.08.2020 00:00:00 - 10.08.2020 00:00:00 (CEST)Le Havre/Octeville, France (7046): visibility: 04.08.2020 00:00:00 - 10.08.2020 00:00:00 (CEST)Le Havre/Octeville, France (7046): Quantités de précipitations: 04.08.2020 00:00:00 - 10.08.2020 00:00:00 (CEST)
Date & Time tt [°C] td [°C] ff [km/h] ff [knt] fx [km/h] fx [knt] dd ppp [hPa] vv [km] rr [mm]
10.08.2020 00:00:00 19,2 17,7 6 3 14 7 SW 1013,8 3,4 0,0
09.08.2020 23:00:00 19,5 17,8 10 5 18 10 WSW 1013,7 6 0,0
09.08.2020 22:00:00 19,6 18,1 13 7 18 10 W 1013,7 5 0,0
09.08.2020 21:00:00 20,1 17,9 13 7 18 10 W 1013,7 6 0,0
09.08.2020 20:00:00 20,9 18,1 13 7 21 11 WNW 1013,6 7 0,0
09.08.2020 19:00:00 21,1 18,3 15 8 19 10 NW 1013,7 6 0,0
09.08.2020 18:00:00 21,9 18,3 14 7 22 12 NNW 1014,0 8 0,0
09.08.2020 17:00:00 22,2 18,6 16 9 23 12 NNW 1014,4 8 0,0
09.08.2020 16:00:00 23,3 18,6 14 8 29 16 N 1014,6 8 0,0
09.08.2020 15:00:00 23,8 18,9 21 12 28 15 N 1014,7 8 0,0
09.08.2020 14:00:00 23,8 18,9 18 10 22 12 N 1015,2 8 0,0
09.08.2020 13:00:00 23,8 18,7 11 6 17 9 NW 1015,8 7 0,0
09.08.2020 12:00:00 26,1 18,2 4 2 12 7 NW 1015,7 7 0,0
09.08.2020 11:00:00 22,4 18,4 6 3 13 7 W 1016,0 6 0,0
09.08.2020 10:00:00 21,3 17,9 12 6 16 9 WSW 1016,5 6 0,0
09.08.2020 09:00:00 22,2 18,0 4 2 8 4 WSW 1016,2 6 0,0
09.08.2020 08:00:00 19,8 17,9 5 3 6 4 WSW 1016,5 2,3 0,0
09.08.2020 07:00:00 18,8 17,1 3 2 8 4 W 1016,3 4,8 0,0
09.08.2020 06:00:00 19,3 17,6 3 2 5 3 E 1016,3 3,3 0,0
09.08.2020 05:00:00 19,1 17,6 3 1 8 4 E 1016,7 3,1 0,0
09.08.2020 04:00:00 19,1 17,2 2 1 14 8 NNW 1016,8 5 0,0
09.08.2020 03:00:00 19,5 17,3 8 5 20 11 NW 1016,9 10 0,0
09.08.2020 02:00:00 19,5 17,5 11 6 16 9 WNW 1017,4 10 0,0
09.08.2020 01:00:00 19,7 18,0 11 6 16 9 WNW 1017,4 11 0,0
09.08.2020 00:00:00 20,2 18,0 6 3 13 7 WNW 1017,4 12 0,0
08.08.2020 23:00:00 24,1 15,8 7 4 16 9 WNW 1017,0 28 0,0
08.08.2020 22:00:00 23,3 16,1 13 7 14 8 NNW 1017,0 29 0,0
08.08.2020 21:00:00 25,6 15,6 10 6 14 8 NNW 1016,7 31 0,0
08.08.2020 20:00:00 26,5 16,4 4 2 9 5 N 1016,8 31 0,0
08.08.2020 19:00:00 25,5 18,2 7 4 15 8 NNE 1017,0 26 0,0
08.08.2020 18:00:00 28,5 18,6 10 6 16 9 NNW 1017,3 20 0,0
08.08.2020 17:00:00 30,6 13,8 11 6 16 9 NNW 1017,5 18 0,0
08.08.2020 16:00:00 31,6 13,8 11 6 19 10 NW 1017,5 21 0,0
08.08.2020 15:00:00 31,8 14,0 10 5 21 12 NW 1017,5 26 0,0
08.08.2020 14:00:00 33,6 13,6 12 6 24 13 S 1017,5 19 0,0
08.08.2020 13:00:00 32,7 14,8 11 6 21 11 S 1017,6 19 0,0
08.08.2020 12:00:00 31,9 14,5 6 3 18 10 SE 1017,6 19 0,0
08.08.2020 11:00:00 29,3 13,5 12 7 20 11 SE 1017,7 45 0,0
08.08.2020 10:00:00 27,0 14,7 7 4 16 8 E 1017,5 30 0,0
08.08.2020 09:00:00 24,1 14,5 14 8 19 11 E 1017,2 33 0,0
08.08.2020 08:00:00 23,7 15,2 5 3 16 9 E 1017,4 14 0,0
08.08.2020 07:00:00 25,8 13,0 5 3 22 12 SSE 1017,1 32 0,0
08.08.2020 06:00:00 26,4 12,1 15 8 27 15 SSE 1016,9 32 0,0
08.08.2020 05:00:00 26,2 12,3 10 5 25 13 SE 1016,8 33 0,0
08.08.2020 04:00:00 26,9 12,5 13 7 21 11 SE 1016,7 34 0,0
08.08.2020 03:00:00 27,2 13,5 16 9 23 13 SSE 1016,8 36 0,0
08.08.2020 02:00:00 24,3 14,1 11 6 16 9 E 1016,9 35 0,0
08.08.2020 01:00:00 23,8 14,2 10 6 16 9 ESE 1017,0 35 0,0
08.08.2020 00:00:00 24,1 14,2 12 6 19 10 E 1016,9 35 0,0
07.08.2020 23:00:00 24,6 13,8 13 7 24 13 E 1016,6 35 0,0
07.08.2020 22:00:00 25,8 13,3 16 9 28 15 E 1016,2 36 0,0
07.08.2020 21:00:00 27,4 12,2 18 10 31 17 E 1015,9 40 0,0
07.08.2020 20:00:00 30,1 13,0 22 12 35 19 ENE 1015,6 27 0,0
07.08.2020 19:00:00 32,2 12,4 25 14 34 18 NE 1015,6 18 0,0
07.08.2020 18:00:00 32,7 12,9 26 14 34 18 NNE 1015,9 19 0,0
07.08.2020 17:00:00 32,4 13,6 20 11 30 16 N 1016,1 22 0,0
07.08.2020 16:00:00 34,6 11,1 7 4 24 13 ENE 1016,6 19 0,0
07.08.2020 15:00:00 34,3 8,8 11 6 26 14 ESE 1016,8 18 0,0
07.08.2020 14:00:00 34,0 9,9 11 6 29 16 S 1017,1 25 0,0
07.08.2020 13:00:00 32,8 11,3 15 8 28 15 ESE 1017,1 19 0,0
07.08.2020 12:00:00 31,1 12,5 14 7 26 14 SE 1017,6 35 0,0
07.08.2020 11:00:00 29,5 11,5 11 6 20 11 SE 1017,8 20 0,0
07.08.2020 10:00:00 26,8 11,3 12 6 19 10 ESE 1017,8 48 0,0
07.08.2020 09:00:00 24,0 12,6 9 5 15 8 ESE 1017,8 20 0,0
07.08.2020 08:00:00 19,9 12,4 9 5 11 6 ESE 1018,0 25 0,0
07.08.2020 07:00:00 18,4 12,2 8 5 11 6 SE 1017,7 32 0,0
07.08.2020 06:00:00 18,1 11,9 6 4 11 6 ESE 1017,6 34 0,0
07.08.2020 05:00:00 19,6 11,9 6 4 11 6 SE 1017,5 33 0,0
07.08.2020 04:00:00 20,3 11,8 5 3 10 5 SE 1017,3 37 0,0
07.08.2020 03:00:00 20,7 11,6 8 4 13 7 SE 1017,4 43 0,0
07.08.2020 02:00:00 20,8 10,3 9 5 13 7 E 1017,6 43 0,0
07.08.2020 01:00:00 21,2 10,7 9 5 16 9 E 1017,8 43 0,0
07.08.2020 00:00:00 22,0 11,1 11 6 19 11 E 1017,9 43 0,0
06.08.2020 23:00:00 22,3 12,3 13 7 18 10 E 1017,8 40 0,0
06.08.2020 22:00:00 23,2 12,5 12 6 17 9 ENE 1017,5 44 0,0
06.08.2020 21:00:00 25,9 13,1 13 7 20 11 ENE 1016,9 41 0,0
06.08.2020 20:00:00 28,1 12,0 14 8 21 11 NE 1016,7 25 0,0
06.08.2020 19:00:00 28,9 11,9 14 8 25 13 NNE 1016,5 20 0,0
06.08.2020 18:00:00 28,7 11,3 18 10 22 12 N 1016,5 21 0,0
06.08.2020 17:00:00 28,8 11,4 16 9 23 12 N 1016,7 23 0,0
06.08.2020 16:00:00 28,3 12,2 11 6 18 10 N 1017,0 20 0,0
06.08.2020 15:00:00 27,7 13,6 12 7 23 13 NNW 1017,2 25 0,0
06.08.2020 14:00:00 27,5 13,8 11 6 18 10 NW 1017,4 20 0,0
06.08.2020 13:00:00 26,5 14,9 8 5 21 11 NW 1017,5 30 0,0
06.08.2020 12:00:00 26,0 14,1 6 3 20 11 SSE 1017,7 20 0,0
06.08.2020 11:00:00 24,1 14,2 13 7 23 12 SE 1017,7 27 0,0
06.08.2020 10:00:00 22,1 14,7 13 7 20 11 ESE 1017,7 26 0,0
06.08.2020 09:00:00 19,9 14,5 9 5 13 7 E 1017,7 29 0,0
06.08.2020 08:00:00 16,9 13,8 6 3 10 5 ESE 1017,5 30 0,0
06.08.2020 07:00:00 14,8 13,0 6 3 10 6 E 1017,3 18 0,0
06.08.2020 06:00:00 16,2 13,7 7 4 9 5 ESE 1017,0 23 0,0
06.08.2020 05:00:00 15,5 13,3 4 2 6 3 E 1016,9 27 0,0
06.08.2020 04:00:00 16,4 13,7 2 1 5 3 ESE 1017,0 34 0,0
06.08.2020 03:00:00 17,0 14,1 0 0 4 2 N 1016,9 28 0,0
06.08.2020 02:00:00 16,3 13,6 0 0 0 0 N 1016,8 34 0,0
06.08.2020 01:00:00 17,6 13,7 0 0 5 3 N 1016,5 32 0,0
06.08.2020 00:00:00 17,6 13,1 3 2 6 3 ENE 1016,3 36 0,0
05.08.2020 23:00:00 19,0 13,6 0 0 14 8 N 1015,9 37 0,0
05.08.2020 22:00:00 19,9 13,8 5 3 11 6 NE 1015,5 37 0,0
05.08.2020 21:00:00 21,7 13,8 8 5 17 9 N 1015,0 43 0,0
05.08.2020 20:00:00 22,2 14,3 11 6 22 12 N 1014,7 26 0,0
05.08.2020 19:00:00 22,2 13,8 15 8 26 14 N 1014,6 15 0,0
05.08.2020 18:00:00 21,8 13,4 16 9 25 13 N 1014,8 10 0,0
05.08.2020 17:00:00 22,2 12,2 16 9 23 12 N 1014,8 15 0,0
05.08.2020 16:00:00 22,4 10,2 16 9 24 13 NNW 1015,0 15 0,0
05.08.2020 15:00:00 22,6 9,4 16 9 23 12 NNW 1014,8 17 0,0
05.08.2020 14:00:00 22,9 13,4 12 7 28 15 WNW 1014,7 17 0,0
05.08.2020 13:00:00 24,3 10,2 18 10 31 17 SW 1015,2 15 0,0
05.08.2020 12:00:00 23,0 9,7 16 8 26 14 SSW 1015,3 18 0,0
05.08.2020 11:00:00 21,0 10,2 15 8 28 15 SSW 1015,6 10 0,0
05.08.2020 10:00:00 20,4 9,9 17 9 24 13 SSW 1015,7 19 0,0
05.08.2020 09:00:00 18,0 10,8 10 5 16 9 SSE 1015,7 20 0,0
05.08.2020 08:00:00 15,9 10,6 11 6 17 9 SSE 1015,5 20 0,0
05.08.2020 07:00:00 15,0 10,4 11 6 15 8 SSE 1015,6 21 0,0
05.08.2020 06:00:00 15,1 10,3 10 5 15 8 SSE 1015,6 20 0,0
05.08.2020 05:00:00 14,4 9,2 3 2 14 8 SE 1015,9 26 0,0
05.08.2020 04:00:00 16,1 9,3 9 5 15 8 SSE 1016,0 28 0,0
05.08.2020 03:00:00 15,1 9,5 9 5 13 7 SE 1016,2 25 0,0
05.08.2020 02:00:00 15,1 10,3 6 3 11 6 SE 1016,4 29 0,0
05.08.2020 01:00:00 15,4 10,0 4 2 6 3 SSE 1016,6 20 0,0
05.08.2020 00:00:00 15,7 9,8 3 1 6 3 SSE 1017,0 36 0,0
04.08.2020 23:00:00 15,0 9,1 2 1 4 2 SSE 1017,4 41 0,0
04.08.2020 22:00:00 16,6 9,0 0 0 7 4 N 1017,3 17 0,0
04.08.2020 21:00:00 18,3 8,8 6 3 12 7 NW 1017,1 49 0,0
04.08.2020 20:00:00 19,1 9,3 9 5 18 10 NW 1017,4 44 0,0
04.08.2020 19:00:00 19,1 10,1 10 6 23 12 NW 1017,6 22 0,0
04.08.2020 18:00:00 19,3 10,3 13 7 22 12 NNW 1017,9 20 0,0
04.08.2020 17:00:00 19,9 9,2 12 7 22 12 NNW 1018,1 17 0,0
04.08.2020 16:00:00 19,8 10,5 11 6 23 12 NNW 1018,4 16 0,0
04.08.2020 15:00:00 19,1 11,1 18 10 24 13 NNW 1019,0 16 0,0
04.08.2020 14:00:00 19,0 11,1 12 7 22 12 NW 1019,1 17 0,0
04.08.2020 13:00:00 18,5 13,1 11 6 21 11 WNW 1019,4 16 0,0
04.08.2020 12:00:00 17,7 13,6 17 9 26 14 W 1019,4 17 0,0
04.08.2020 11:00:00 18,6 12,1 14 8 23 13 W 1019,1 18 0,0
04.08.2020 10:00:00 17,4 14,1 14 8 23 13 WSW 1019,2 18 0,0
04.08.2020 09:00:00 17,0 14,1 13 7 18 10 WSW 1018,7 35 0,0
04.08.2020 08:00:00 16,6 12,9 9 5 16 9 W 1018,4 26 0,0
04.08.2020 07:00:00 14,8 11,9 8 4 11 6 WNW 1018,2 30 0,0
04.08.2020 06:00:00 14,5 11,5 6 3 12 6 NNW 1018,0 30 0,0
04.08.2020 05:00:00 14,7 11,5 10 5 16 9 NNW 1017,9 28 0,0
04.08.2020 04:00:00 15,7 11,9 11 6 19 10 NNW 1018,0 27 0,0
04.08.2020 03:00:00 16,0 12,2 13 7 28 15 NW 1018,2 26 0,0
04.08.2020 02:00:00 16,3 11,4 16 9 31 17 NW 1018,3 27 0,0
04.08.2020 01:00:00 16,4 10,5 21 11 31 17 NW 1018,4 28 0,0
04.08.2020 00:00:00 16,3 11,7 19 11 33 18 NW 1018,3 26 0,0

tt = Température de l'air
td = dewpoint
ff = Vitesse du vent
fx = gusts
dd = Direction du vent
ppp = reduced air pressure
vv = visibility
rr = Quantités de précipitations

stations d'obs. à proximité